CST,Max TemperatureF,Mean TemperatureF,Min TemperatureF,Max Dew PointF,MeanDew PointF,Min DewpointF,Max Humidity, Mean Humidity, Min Humidity, Max Sea Level PressureIn, Mean Sea Level PressureIn, Min Sea Level PressureIn, Max VisibilityMiles, Mean VisibilityMiles, Min VisibilityMiles, Max Wind SpeedMPH, Mean Wind SpeedMPH, Max Gust SpeedMPH,PrecipitationIn, CloudCover, Events, WindDirDegrees
2012-12-1,35,33,30,34,32,27,100,93,85,29.99,29.81,29.70,8,2,0,14,4,21,T,8,Fog,194
2012-12-2,38,36,33,35,32,30,96,91,85,29.94,29.84,29.63,10,3,0,12,5,18,0.00,7,Fog,173
2012-12-3,46,34,21,43,34,12,92,80,68,29.76,29.50,29.38,10,8,4,24,11,41,0.03,6,Rain-Snow,225
2012-12-4,21,16,11,14,9,3,80,74,67,30.44,30.16,29.81,10,9,3,24,12,33,T,8,Snow,278
2012-12-5,33,21,9,18,13,7,92,73,53,30.44,30.14,29.72,10,10,10,18,9,25,T,3,,156
2012-12-6,36,28,20,32,22,12,92,72,51,29.97,29.77,29.58,10,9,3,22,12,29,T,8,Rain-Snow,259
2012-12-7,20,10,0,13,6,-4,87,72,56,30.16,30.08,29.99,10,10,10,13,6,16,T,5,,306
2012-12-8,19,9,-1,16,9,-5,92,83,74,30.18,30.09,30.00,10,5,1,10,5,13,0.09,7,Snow,84
2012-12-9,17,8,-2,13,5,-6,88,79,69,30.29,30.20,30.11,10,6,1,16,10,22,0.05,7,Snow,11
2012-12-10,11,-1,-14,3,-7,-18,95,81,66,30.14,29.97,29.80,10,9,1,9,2,12,0.00,4,,332
2012-12-11,12,0,-13,8,2,-15,92,83,73,30.04,29.79,29.66,10,6,2,15,5,20,0.01,7,Snow,256
2012-12-12,19,4,-12,15,5,-14,88,81,73,30.05,29.97,29.81,10,10,10,16,5,23,T,7,,87
2012-12-13,17,15,12,14,10,8,88,81,73,30.17,30.09,29.96,10,10,5,5,4,7,T,8,Snow,319
2012-12-14,32,23,13,21,16,11,100,84,68,30.17,30.06,29.90,10,9,2,17,7,21,0.00,4,,133
2012-12-15,33,28,22,32,30,21,96,92,88,29.88,29.68,29.56,8,3,0,10,5,12,0.76,7,Fog-Rain-Snow,93
2012-12-16,33,26,19,31,20,16,96,90,84,29.82,29.72,29.58,10,6,2,16,9,21,0.01,8,Snow,302
2012-12-17,20,18,15,18,15,12,92,88,84,29.80,29.76,29.71,10,9,4,9,4,12,T,8,,281
2012-12-18,21,18,14,19,16,12,96,90,84,29.80,29.73,29.66,10,9,2,6,2,8,0.02,8,Snow,123
2012-12-19,29,23,17,27,20,16,100,91,81,30.04,29.86,29.74,10,6,1,12,4,16,0.05,8,Snow,177
2012-12-20,21,9,-4,18,8,-7,95,89,83,30.21,30.09,30.00,10,8,2,15,8,18,T,6,Snow,320
2012-12-21,8,1,-7,4,-3,-9,95,87,79,30.34,30.26,30.15,10,10,6,9,4,10,0.00,5,,293
2012-12-22,13,6,-2,9,5,-6,91,84,76,30.19,30.10,29.98,10,7,1,15,6,20,T,6,Snow,315
2012-12-23,11,1,-10,6,-5,-11,95,87,79,30.25,30.22,30.13,10,10,10,9,5,12,T,1,,285
2012-12-24,-1,-6,-11,-7,-12,-16,86,79,72,30.40,30.23,30.09,10,10,5,12,6,14,T,4,,289
2012-12-25,0,-9,-19,-6,-15,-23,90,82,74,30.57,30.48,30.33,10,10,7,8,3,12,T,5,,260
2012-12-26,6,-6,-19,-2,-13,-24,90,81,72,30.49,30.42,30.33,10,9,3,5,0,6,T,4,Snow,140
2012-12-27,10,-2,-14,6,-4,-17,91,85,78,30.40,30.34,30.25,10,10,10,5,1,7,T,6,,64
2012-12-28,20,11,2,16,8,-1,91,84,77,30.24,30.12,29.98,10,7,2,6,1,8,0.03,7,Snow,157
2012-12-29,14,8,1,10,7,0,92,84,76,30.11,30.02,29.93,10,6,2,10,4,14,0.02,8,Snow,267
2012-12-30,18,6,-6,14,7,-8,95,86,76,30.14,29.94,29.80,10,6,0,22,6,29,0.07,7,Fog-Snow,222
2012-12-31,10,-4,-18,1,-10,-22,91,78,65,30.31,30.21,29.99,10,10,8,20,6,24,T,1,,289